Middletown, OH

10:16 AM EDT on September 21, 2017 (GMT -0400)
Hook Field Municipal

Weather History for KMWO - May, 2013

Change the Weather History Date:

Friday, May 24, 2013

  Actual Average (KFFO) Record (KFFO)
Temperature  
Mean Temperature 56 °F -  
Max Temperature 65 °F 70 °F 86 °F (2000)
Min Temperature 47 °F 50 °F 42 °F (1997)
Degree Days  
Heating Degree Days 9    
Growing Degree Days 6 (Base 50)    
Moisture  
Dew Point 45 °F    
Average Humidity 72    
Maximum Humidity 97    
Minimum Humidity 42    
Precipitation  
Precipitation 0.00 in - - ()
Sea Level Pressure  
Sea Level Pressure 30.27 in    
Wind  
Wind Speed 8 mph (North)    
Max Wind Speed 13 mph    
Max Gust Speed 22 mph    
Visibility 10 miles    
Events      
Averages and records for this station are not official NWS values.
T = Trace of Precipitation, MM = Missing Value Source: NWS Daily Summary

Daily Weather History Graph

Daily Weather History Graph

Search for Another Location

Airport or City:

Trip Planner

Search our weather history database for the weather conditions in past years. The results will help you decide how hot, cold, wet, or windy it might be!

Date:

Astronomy

May. 24, 2013 Rise Set
Actual Time 6:16 AM EDT 8:53 PM EDT
Civil Twilight 5:45 AM EDT 9:24 PM EDT
Nautical Twilight 5:06 AM EDT 10:03 PM EDT
Astronomical Twilight 4:22 AM EDT 10:47 PM EDT
Moon 8:34 PM EDT (5/24) 5:47 AM EDT (5/24)
Length of Visible Light 15h 39m
Length of Day
14h 36m
Full, 100% of the Moon is Illuminated
May 24
Full
May 25
Full
May 31
Last Quarter
Jun 8
New
Jun 16
First Quarter

Hourly Weather History & Observations

Time (EDT) Temp. Dew Point Humidity Pressure Visibility Wind Dir Wind Speed Gust Speed Precip Events Conditions
12:15 AM 52.7 °F 49.5 °F 89% 30.13 in 10.0 mi North 9.2 mph 16.1 mph N/A   Overcast
12:35 AM 52.7 °F 49.3 °F 88% 30.14 in 10.0 mi NNE 8.1 mph - N/A   Overcast
12:55 AM 52.7 °F 49.1 °F 88% 30.14 in 10.0 mi NNE 9.2 mph 16.1 mph N/A   Overcast
1:15 AM 52.7 °F 49.1 °F 88% 30.15 in 10.0 mi NNE 11.5 mph - N/A   Overcast
1:35 AM 52.7 °F 49.5 °F 89% 30.15 in 10.0 mi NNE 9.2 mph - N/A   Overcast
1:55 AM 52.7 °F 50.0 °F 91% 30.16 in 10.0 mi NNE 12.7 mph 18.4 mph N/A   Overcast
2:15 AM 52.5 °F 49.6 °F 90% 30.16 in 10.0 mi NNE 12.7 mph 19.6 mph N/A   Overcast
2:35 AM 52.5 °F 49.3 °F 89% 30.17 in 10.0 mi NNE 12.7 mph 21.9 mph N/A   Overcast
2:55 AM 51.1 °F 48.6 °F 91% 30.17 in 10.0 mi NE 6.9 mph - N/A   Overcast
3:15 AM 51.4 °F 48.9 °F 91% 30.18 in 10.0 mi NNE 9.2 mph - N/A   Overcast
3:35 AM 50.2 °F 47.3 °F 90% 30.19 in 10.0 mi NNE 9.2 mph 18.4 mph N/A   Overcast
3:55 AM 50.2 °F 47.5 °F 90% 30.20 in 10.0 mi NNE 8.1 mph 17.3 mph N/A   Overcast
4:15 AM 50.2 °F 47.3 °F 90% 30.20 in 10.0 mi North 9.2 mph - N/A   Overcast
4:35 AM 50.2 °F 47.5 °F 90% 30.21 in 10.0 mi NNE 5.8 mph - N/A   Overcast
4:55 AM 50.2 °F 47.3 °F 90% 30.21 in 10.0 mi NNE 10.4 mph - N/A   Overcast
5:15 AM 49.1 °F 45.0 °F 86% 30.22 in 10.0 mi NNE 11.5 mph - N/A   Overcast
5:35 AM 47.7 °F 43.7 °F 86% 30.23 in 10.0 mi NNE 8.1 mph - N/A   Overcast
5:55 AM 47.7 °F 43.0 °F 84% 30.23 in 10.0 mi NNE 8.1 mph - N/A   Overcast
6:15 AM 47.7 °F 43.3 °F 85% 30.23 in 10.0 mi NNE 8.1 mph - N/A   Overcast
6:35 AM 47.7 °F 43.7 °F 86% 30.24 in 10.0 mi NNE 5.8 mph - N/A   Overcast
6:55 AM 47.7 °F 43.7 °F 86% 30.25 in 10.0 mi NNE 6.9 mph - N/A   Mostly Cloudy
7:15 AM 47.7 °F 43.7 °F 86% 30.25 in 10.0 mi NNE 8.1 mph - N/A   Scattered Clouds
7:35 AM 47.7 °F 43.3 °F 85% 30.26 in 10.0 mi NNE 5.8 mph - N/A   Clear
7:55 AM 50.2 °F 45.3 °F 83% 30.27 in 10.0 mi North 6.9 mph - N/A   Scattered Clouds
8:15 AM 49.5 °F 45.0 °F 84% 30.28 in 10.0 mi NE 3.5 mph - N/A   Clear
8:35 AM 52.7 °F 45.7 °F 77% 30.28 in 10.0 mi NE 5.8 mph - N/A   Scattered Clouds
8:55 AM 52.7 °F 44.6 °F 74% 30.29 in 10.0 mi North 5.8 mph 16.1 mph N/A   Scattered Clouds
9:15 AM 52.7 °F 45.0 °F 75% 30.30 in 10.0 mi NNE 9.2 mph - N/A   Mostly Cloudy
9:35 AM 52.7 °F 45.5 °F 76% 30.31 in 10.0 mi NNW 10.4 mph - N/A   Overcast
9:55 AM 51.8 °F 44.2 °F 75% 30.32 in 10.0 mi NNE 9.2 mph - N/A   Mostly Cloudy
10:15 AM 54.7 °F 46.0 °F 73% 30.33 in 10.0 mi North 8.1 mph - N/A   Scattered Clouds
10:35 AM 55.4 °F 45.3 °F 69% 30.33 in 10.0 mi North 6.9 mph 16.1 mph N/A   Mostly Cloudy
10:55 AM 55.2 °F 46.0 °F 71% 30.33 in 10.0 mi NNE 8.1 mph - N/A   Mostly Cloudy
11:15 AM 55.4 °F 44.4 °F 67% 30.33 in 10.0 mi NNW 11.5 mph - N/A   Mostly Cloudy
11:35 AM 54.7 °F 43.2 °F 65% 30.33 in 10.0 mi North 10.4 mph - N/A   Mostly Cloudy
11:55 AM 55.8 °F 42.8 °F 62% 30.33 in 10.0 mi North 9.2 mph - N/A   Scattered Clouds
12:15 PM 56.5 °F 45.7 °F 67% 30.34 in 10.0 mi North 12.7 mph 18.4 mph N/A   Mostly Cloudy
12:35 PM 57.0 °F 44.8 °F 64% 30.34 in 10.0 mi North 5.8 mph 16.1 mph N/A   Mostly Cloudy
12:55 PM 57.7 °F 43.9 °F 60% 30.34 in 10.0 mi NNE 12.7 mph 18.4 mph N/A   Scattered Clouds
1:15 PM 57.7 °F 43.2 °F 58% 30.34 in 10.0 mi NNE 11.5 mph 18.4 mph N/A   Scattered Clouds
1:35 PM 57.7 °F 43.2 °F 58% 30.33 in 10.0 mi NNE 5.8 mph 18.4 mph N/A   Clear
1:55 PM 59.0 °F 43.5 °F 56% 30.34 in 10.0 mi NNW 10.4 mph - N/A   Clear
2:15 PM 59.2 °F 44.6 °F 58% 30.33 in 10.0 mi NNW 10.4 mph 16.1 mph N/A   Clear
2:35 PM 60.1 °F 43.9 °F 55% 30.33 in 10.0 mi NNE 8.1 mph - N/A   Clear
2:55 PM 60.3 °F 44.2 °F 55% 30.33 in 10.0 mi NNE 11.5 mph 17.3 mph N/A   Clear
3:15 PM 60.8 °F 42.8 °F 52% 30.33 in 10.0 mi North 10.4 mph 17.3 mph N/A   Clear
3:35 PM 60.8 °F 42.8 °F 52% 30.33 in 10.0 mi NNW 6.9 mph - N/A   Clear
3:55 PM 62.6 °F 44.2 °F 51% 30.32 in 10.0 mi North 9.2 mph 17.3 mph N/A   Clear
4:15 PM 62.6 °F 42.4 °F 48% 30.32 in 10.0 mi North 6.9 mph - N/A   Clear
4:35 PM 62.6 °F 42.8 °F 48% 30.32 in 10.0 mi North 9.2 mph - N/A   Clear
4:55 PM 62.6 °F 41.9 °F 47% 30.31 in 10.0 mi North 6.9 mph 16.1 mph N/A   Clear
5:15 PM 62.6 °F 41.4 °F 46% 30.31 in 10.0 mi NNW 6.9 mph - N/A   Clear
5:35 PM 65.3 °F 43.2 °F 45% 30.31 in 10.0 mi NNW 12.7 mph - N/A   Clear
5:55 PM 65.3 °F 43.2 °F 45% 30.30 in 10.0 mi North 9.2 mph - N/A   Clear
6:15 PM 65.3 °F 42.1 °F 43% 30.30 in 10.0 mi North 6.9 mph - N/A   Clear
6:35 PM 65.3 °F 42.6 °F 44% 30.30 in 10.0 mi NNW 6.9 mph - N/A   Clear
6:55 PM 65.1 °F 41.9 °F 43% 30.29 in 10.0 mi North 8.1 mph - N/A   Clear
7:15 PM 62.6 °F 38.8 °F 42% 30.29 in 10.0 mi North 5.8 mph - N/A   Clear
7:35 PM 62.6 °F 38.8 °F 42% 30.29 in 10.0 mi NNE 8.1 mph - N/A   Clear
7:55 PM 60.8 °F 37.8 °F 42% 30.28 in 10.0 mi North 5.8 mph - N/A   Clear
8:15 PM 59.5 °F 40.6 °F 50% 30.28 in 10.0 mi Calm Calm - N/A   Clear
8:35 PM 59.0 °F 40.1 °F 50% 30.28 in 10.0 mi Calm Calm - N/A   Clear
8:55 PM 52.7 °F 47.7 °F 83% 30.28 in 10.0 mi Calm Calm - N/A   Clear
9:15 PM 52.7 °F 50.2 °F 91% 30.28 in 10.0 mi Calm Calm - N/A   Clear
9:35 PM 52.7 °F 50.2 °F 91% 30.29 in 10.0 mi Calm Calm - N/A   Clear
9:55 PM 51.4 °F 48.9 °F 91% 30.29 in 10.0 mi Calm Calm - N/A   Clear
10:15 PM 49.5 °F 45.9 °F 87% 30.30 in 10.0 mi Calm Calm - N/A   Clear
10:35 PM 48.0 °F 45.3 °F 90% 30.30 in 10.0 mi Calm Calm - N/A   Clear
10:55 PM 47.7 °F 46.0 °F 94% 30.31 in 10.0 mi Calm Calm - N/A   Clear
11:15 PM 47.7 °F 46.4 °F 95% 30.32 in 10.0 mi Calm Calm - N/A   Clear
11:35 PM 47.7 °F 46.8 °F 97% 30.33 in 10.0 mi Calm Calm - N/A   Clear
11:55 PM 47.7 °F 46.8 °F 97% 30.32 in 10.0 mi Calm Calm - N/A   Clear